logo
Rechercher aéroport 
image banner adimage banner adimage banner ad
image banner ad

CJO3 - Jenkins Cove

Situé à Kars, Canada

ICAO - , IATA -

Données fournies par Airmate  

Information générale

Coordonnées: N45°35'38" W65°57'25"
Élévation : 20 feet MSL.
Variation magnétique : -17.4167° East
Voir autres Aéroports à New Brunswick

Données opérationnelles

Special qualification required
Heure actuelle UTC:
Heure actuelle locale:
Météo à : CYSJ - Saint John ( 31 km )
METAR: CYSJ 231800Z 33011G18KT 15SM FEW030 BKN260 17/07 A3008 RMK SC1CI7 SC TR SLP188 DENSITY ALT 600FT
TAF: TAF CYSJ 231740Z 2318/2406 34015G25KT P6SM SCT025 FM232000 35012G22KT P6SM FEW025 BECMG 2322/2324 VRB03KT FM240000 VRB03KT P6SM BKN050 TEMPO 2400/2406 SCT050 RMK NXT FCST BY 240000Z
Voir NOTAMs / SUP AIP / TFR affectant cet aéroport [VIEW]
Fréquences de communication: [VIEW]

Pistes:

Identifiant RWYQFULongueur (ft)Largeur (ft)SurfaceLDA (ft)
W00WATER

Coordonnées de l'aéroport

Adresse: Kars Canada

Vue satellite de CJO3